Time,TemperatureF,DewpointF,PressureIn,WindDirection,WindDirectionDegrees,WindSpeedMPH,WindSpeedGustMPH,Humidity,HourlyPrecipIn,Conditions,Clouds,dailyrainin,SolarRadiationWatts/m^2,SoftwareType,DateUTC
2013-02-18 00:21:00,30.0,24.0,-100.00,North,354,6.0,13.0,79,-99.99,,,0.01,0.000000,,2013-02-18 07:21:00,
2013-02-18 00:32:00,30.0,24.0,-100.00,North,354,6.0,13.0,79,-99.99,,,0.01,0.000000,,2013-02-18 07:32:00,
2013-02-18 00:42:00,30.0,24.0,-100.00,North,354,6.0,13.0,79,-99.99,,,0.01,0.000000,,2013-02-18 07:42:00,
2013-02-18 00:51:00,30.0,24.0,-100.00,North,354,6.0,13.0,79,-99.99,,,0.01,0.000000,,2013-02-18 07:51:00,
2013-02-18 01:32:00,30.0,24.0,-100.00,North,4,6.0,11.0,78,0.00,,,0.01,0.000000,,2013-02-18 08:32:00,
2013-02-18 01:42:00,30.0,24.0,-100.00,North,4,6.0,11.0,78,0.00,,,0.01,0.000000,,2013-02-18 08:42:00,
2013-02-18 01:52:00,30.0,24.0,-100.00,North,4,6.0,11.0,78,0.00,,,0.01,0.000000,,2013-02-18 08:52:00,
2013-02-18 02:31:00,29.0,24.0,-100.00,North,11,3.0,7.0,81,0.00,,,0.01,0.000000,,2013-02-18 09:31:00,
2013-02-18 02:41:00,29.0,24.0,-100.00,North,11,3.0,7.0,81,0.00,,,0.01,0.000000,,2013-02-18 09:41:00,
2013-02-18 02:51:00,29.0,24.0,-100.00,North,11,3.0,7.0,81,0.00,,,0.01,0.000000,,2013-02-18 09:51:00,
2013-02-18 03:31:00,29.0,25.0,-100.00,North,351,3.0,7.0,84,0.00,,,0.01,0.000000,,2013-02-18 10:31:00,
2013-02-18 03:42:00,29.0,25.0,-100.00,North,351,3.0,7.0,84,0.00,,,0.01,0.000000,,2013-02-18 10:42:00,
2013-02-18 03:51:00,29.0,25.0,-100.00,North,351,3.0,7.0,84,0.00,,,0.01,0.000000,,2013-02-18 10:51:00,
2013-02-18 04:21:00,28.0,25.0,-100.00,NW,309,0.0,4.0,88,0.00,,,0.01,0.000000,,2013-02-18 11:21:00,
2013-02-18 04:32:00,28.0,25.0,-100.00,NW,309,0.0,4.0,88,0.00,,,0.01,0.000000,,2013-02-18 11:32:00,
2013-02-18 04:42:00,28.0,25.0,-100.00,NW,309,0.0,4.0,88,0.00,,,0.01,0.000000,,2013-02-18 11:42:00,
2013-02-18 04:52:00,28.0,25.0,-100.00,NW,309,0.0,4.0,88,0.00,,,0.01,0.000000,,2013-02-18 11:52:00,
2013-02-18 05:32:00,27.0,25.0,-100.00,WSW,241,2.0,3.0,92,0.00,,,0.01,0.000000,,2013-02-18 12:32:00,
2013-02-18 05:42:00,27.0,25.0,-100.00,WSW,241,2.0,3.0,92,0.00,,,0.01,0.000000,,2013-02-18 12:42:00,
2013-02-18 05:52:00,27.0,25.0,-100.00,WSW,241,2.0,3.0,92,0.00,,,0.01,0.000000,,2013-02-18 12:52:00,
2013-02-18 06:22:00,27.0,25.0,-100.00,WNW,282,6.0,8.0,92,0.00,,,0.01,0.000000,,2013-02-18 13:22:00,
2013-02-18 06:32:00,27.0,25.0,-100.00,WNW,282,6.0,8.0,92,0.00,,,0.01,0.000000,,2013-02-18 13:32:00,
2013-02-18 06:42:00,27.0,25.0,-100.00,WNW,282,6.0,8.0,92,0.00,,,0.01,0.000000,,2013-02-18 13:42:00,
2013-02-18 06:52:00,27.0,25.0,-100.00,WNW,282,6.0,8.0,92,0.00,,,0.01,0.000000,,2013-02-18 13:52:00,
2013-02-18 07:32:00,28.0,26.0,-100.00,NW,322,7.0,13.0,93,0.00,,,0.01,0.000000,,2013-02-18 14:32:00,
2013-02-18 07:41:00,28.0,26.0,-100.00,NW,322,7.0,13.0,93,0.00,,,0.01,0.000000,,2013-02-18 14:41:00,
2013-02-18 07:53:00,28.0,26.0,-100.00,NW,322,7.0,13.0,93,0.00,,,0.01,0.000000,,2013-02-18 14:53:00,
2013-02-18 08:32:00,26.0,23.0,-100.00,NNW,344,10.0,17.0,88,0.00,,,0.01,27.000000,,2013-02-18 15:32:00,
2013-02-18 08:42:00,26.0,23.0,-100.00,NNW,344,10.0,17.0,88,0.00,,,0.01,27.000000,,2013-02-18 15:42:00,
2013-02-18 08:52:00,26.0,23.0,-100.00,NNW,344,10.0,17.0,88,0.00,,,0.01,27.000000,,2013-02-18 15:52:00,
2013-02-18 09:32:00,27.0,24.0,-100.00,NW,320,7.0,14.0,88,0.00,,,0.01,110.000000,,2013-02-18 16:32:00,
2013-02-18 09:42:00,27.0,24.0,-100.00,NW,320,7.0,14.0,88,0.00,,,0.01,110.000000,,2013-02-18 16:42:00,
2013-02-18 09:52:00,27.0,24.0,-100.00,NW,320,7.0,14.0,88,0.00,,,0.01,110.000000,,2013-02-18 16:52:00,
2013-02-18 10:32:00,30.0,23.0,-100.00,NW,323,7.0,12.0,76,0.02,,,0.03,284.000000,,2013-02-18 17:32:00,
2013-02-18 10:42:00,30.0,23.0,-100.00,NW,323,7.0,12.0,76,0.02,,,0.03,284.000000,,2013-02-18 17:42:00,
2013-02-18 10:52:00,30.0,23.0,-100.00,NW,323,7.0,12.0,76,0.02,,,0.03,284.000000,,2013-02-18 17:52:00,
2013-02-18 11:22:00,31.0,18.0,-100.00,NNW,338,10.0,15.0,57,0.01,,,0.04,318.000000,,2013-02-18 18:22:00,
2013-02-18 11:32:00,31.0,18.0,-100.00,NNW,338,10.0,15.0,57,0.01,,,0.04,318.000000,,2013-02-18 18:32:00,
2013-02-18 11:42:00,31.0,18.0,-100.00,NNW,338,10.0,15.0,57,0.01,,,0.04,318.000000,,2013-02-18 18:42:00,
2013-02-18 11:52:00,31.0,18.0,-100.00,NNW,338,10.0,15.0,57,0.01,,,0.04,318.000000,,2013-02-18 18:52:00,
2013-02-18 12:22:00,32.0,20.0,-100.00,NW,325,6.0,13.0,62,0.00,,,0.04,283.000000,,2013-02-18 19:22:00,
2013-02-18 12:33:00,32.0,20.0,-100.00,NW,325,6.0,13.0,62,0.00,,,0.04,283.000000,,2013-02-18 19:33:00,
2013-02-18 12:42:00,32.0,20.0,-100.00,NW,325,6.0,13.0,62,0.00,,,0.04,283.000000,,2013-02-18 19:42:00,
2013-02-18 12:52:00,32.0,20.0,-100.00,NW,325,6.0,13.0,62,0.00,,,0.04,283.000000,,2013-02-18 19:52:00,
2013-02-18 14:32:00,33.0,19.0,-100.00,NNW,344,6.0,12.0,56,-99.99,,,0.03,443.000000,,2013-02-18 21:32:00,
2013-02-18 14:42:00,33.0,19.0,-100.00,NNW,344,6.0,12.0,56,-99.99,,,0.03,443.000000,,2013-02-18 21:42:00,
2013-02-18 14:52:00,33.0,19.0,-100.00,NNW,344,6.0,12.0,56,-99.99,,,0.03,443.000000,,2013-02-18 21:52:00,
2013-02-18 15:33:00,36.0,20.0,-100.00,North,350,5.0,12.0,52,0.00,,,0.03,380.000000,,2013-02-18 22:33:00,
2013-02-18 15:42:00,36.0,20.0,-100.00,North,350,5.0,12.0,52,0.00,,,0.03,380.000000,,2013-02-18 22:42:00,
2013-02-18 15:52:00,36.0,20.0,-100.00,North,350,5.0,12.0,52,0.00,,,0.03,380.000000,,2013-02-18 22:52:00,
2013-02-18 16:22:00,35.0,18.0,-100.00,NNE,26,4.0,11.0,49,0.00,,,0.03,316.000000,,2013-02-18 23:22:00,
2013-02-18 16:32:00,35.0,18.0,-100.00,NNE,26,4.0,11.0,49,0.00,,,0.03,316.000000,,2013-02-18 23:32:00,
2013-02-18 16:42:00,35.0,18.0,-100.00,NNE,26,4.0,11.0,49,0.00,,,0.03,316.000000,,2013-02-18 23:42:00,
2013-02-18 16:52:00,35.0,18.0,-100.00,NNE,26,4.0,11.0,49,0.00,,,0.03,316.000000,,2013-02-18 23:52:00,
2013-02-18 17:22:00,31.0,15.0,-100.00,SSE,163,6.0,10.0,52,0.00,,,0.03,176.000000,,2013-02-19 00:22:00,
2013-02-18 17:33:00,31.0,15.0,-100.00,SSE,163,6.0,10.0,52,0.00,,,0.03,176.000000,,2013-02-19 00:33:00,
2013-02-18 17:42:00,31.0,15.0,-100.00,SSE,163,6.0,10.0,52,0.00,,,0.03,176.000000,,2013-02-19 00:42:00,
2013-02-18 17:52:00,31.0,15.0,-100.00,SSE,163,6.0,10.0,52,0.00,,,0.03,176.000000,,2013-02-19 00:52:00,
2013-02-18 18:23:00,24.0,17.0,-100.00,ESE,119,6.0,10.0,73,0.00,,,0.03,22.000000,,2013-02-19 01:23:00,
2013-02-18 18:33:00,24.0,17.0,-100.00,ESE,119,6.0,10.0,73,0.00,,,0.03,22.000000,,2013-02-19 01:33:00,
2013-02-18 18:43:00,24.0,17.0,-100.00,ESE,119,6.0,10.0,73,0.00,,,0.03,22.000000,,2013-02-19 01:43:00,
2013-02-18 18:53:00,24.0,17.0,-100.00,ESE,119,6.0,10.0,73,0.00,,,0.03,22.000000,,2013-02-19 01:53:00,
2013-02-18 19:33:00,21.0,14.0,-100.00,SE,124,7.0,11.0,75,0.00,,,0.03,0.000000,,2013-02-19 02:33:00,
2013-02-18 19:42:00,21.0,14.0,-100.00,SE,124,7.0,11.0,75,0.00,,,0.03,0.000000,,2013-02-19 02:42:00,
2013-02-18 19:52:00,21.0,14.0,-100.00,SE,124,7.0,11.0,75,0.00,,,0.03,0.000000,,2013-02-19 02:52:00,
2013-02-18 20:23:00,19.0,14.0,-100.00,SE,135,5.0,11.0,79,0.00,,,0.03,0.000000,,2013-02-19 03:23:00,
2013-02-18 20:33:00,19.0,14.0,-100.00,SE,135,5.0,11.0,79,0.00,,,0.03,0.000000,,2013-02-19 03:33:00,
2013-02-18 20:43:00,19.0,14.0,-100.00,SE,135,5.0,11.0,79,0.00,,,0.03,0.000000,,2013-02-19 03:43:00,
2013-02-18 20:52:00,19.0,14.0,-100.00,SE,135,5.0,11.0,79,0.00,,,0.03,0.000000,,2013-02-19 03:52:00,
2013-02-18 21:22:00,17.0,13.0,-100.00,SSE,159,7.0,9.0,83,0.00,,,0.03,0.000000,,2013-02-19 04:22:00,
2013-02-18 21:32:00,17.0,13.0,-100.00,SSE,159,7.0,9.0,83,0.00,,,0.03,0.000000,,2013-02-19 04:32:00,
2013-02-18 21:43:00,17.0,13.0,-100.00,SSE,159,7.0,9.0,83,0.00,,,0.03,0.000000,,2013-02-19 04:43:00,
2013-02-18 21:52:00,17.0,13.0,-100.00,SSE,159,7.0,9.0,83,0.00,,,0.03,0.000000,,2013-02-19 04:52:00,
2013-02-18 22:22:00,16.0,12.0,-100.00,SE,145,5.0,7.0,83,0.00,,,-99.99,0.000000,,2013-02-19 05:22:00,
2013-02-18 22:32:00,16.0,12.0,-100.00,SE,145,5.0,7.0,83,0.00,,,-99.99,0.000000,,2013-02-19 05:32:00,
2013-02-18 22:43:00,16.0,12.0,-100.00,SE,145,5.0,7.0,83,0.00,,,-99.99,0.000000,,2013-02-19 05:43:00,
2013-02-18 22:52:00,16.0,12.0,-100.00,SE,145,5.0,7.0,83,0.00,,,-99.99,0.000000,,2013-02-19 05:52:00,
2013-02-18 23:32:00,13.0,9.0,-100.00,SE,139,6.0,8.0,83,0.00,,,-99.99,0.000000,,2013-02-19 06:32:00,
2013-02-18 23:42:00,13.0,9.0,-100.00,SE,139,6.0,8.0,83,0.00,,,-99.99,0.000000,,2013-02-19 06:42:00,
2013-02-18 23:52:00,13.0,9.0,-100.00,SE,139,6.0,8.0,83,0.00,,,-99.99,0.000000,,2013-02-19 06:52:00,